sat.trackr.live / text

‹ back to catalog

ECHOSTAR 19

NORAD 41893 · 2016-079A

PAYLOAD ACTIVE UNKNOWN

§ Identity

Operator
Country
US
Launch date
2016-12-18
Launch site
AFETR
Launch vehicle
Mass (kg)
RCS (m²)
7.19

Purposes: comms

External: N2YO · Heavens-Above · Gunter

§ Orbital elements

Epoch: 2026-09-19T14:54:16.682688Z

Period
1,436.10 min
Inclination
0.0162°
Eccentricity
0.0001424
Mean motion
1.00271377 rev/d
Perigee alt
35,780.7 km
Apogee alt
35,792.7 km
Semi-major
42,164.8 km
B*
0.0000e+0
RAAN
147.2882°
Arg perigee
19.8956°
Mean anomaly
317.8186°
Rev number
3,565

§ Raw data

ECHOSTAR 191 41893U 16079A   26262.62102642 -.00000143  00000+0  00000+0 0  99962 41893   0.0162 147.2882 0001424  19.8956 317.8186  1.00271377 35658

JSON: /api/v1/satellites/41893 · /tle

For live sub-satellite position, see the globe view (requires WebGL).

§ Visibility from observer

Set your observer location to see the next 7 days of passes ≥ 10°. The values pass through the URL so the page stays shareable.

No JS? Fill the form by hand. The geolocation button needs JavaScript.